Regional Weather Roundup
Issued by NWS

Home | Current Version | Previous Version | Text Only | Print | Product List | Glossary On
Versions: 1 2 3 4 5 6 7 8 9 10 11 12 13 14 15 16 17 18 19 20 21 22 23 24 25 26 27 28 29 30 31 32 33 34 35 36 37 38 39 40 41 42 43 44 45 46 47 48 49 50
000
ASUS43 KLSX 020657
RWRMO

WEATHER SUMMARY FOR MISSOURI
NATIONAL WEATHER SERVICE SPRINGFIELD MO
200 AM CDT WED SEP 02 2015

NOTE: "FAIR" INDICATES FEW OR NO CLOUDS BELOW 12,000 FEET WITH NO
       SIGNIFICANT WEATHER AND/OR OBSTRUCTIONS TO VISIBILITY.
       CURRENT SKY AND/OR WEATHER CONDITIONS ARE NOT AVAILABLE FOR
       CHILLICOTHE AND FARMINGTON.

MOZ001>031-035>038-043-044-053-054-020800-
...NORTHERN AND WESTERN MISSOURI...

CITY           SKY/WX    TMP DP  RH WIND       PRES   REMARKS
KANSAS CTY INT PTCLDY    73  65  75 S12       29.99F
LEE`S SUMMIT   CLEAR     74  63  68 S9        30.01F
ST JOSEPH      LGT RAIN  74  69  85 SE5       29.98F
CHILLICOTHE      N/A     70  68  93 CALM      30.01F

$$
MOZ066>068-077>081-088>096-101>105-020800-
...SOUTHWEST MISSOURI...

CITY           SKY/WX    TMP DP  RH WIND       PRES   REMARKS
SPRINGFIELD    CLEAR     72  67  84 SE10      30.07F
JOPLIN         CLEAR     74  66  76 S10       30.04F

$$
MOZ032>034-039>042-045>050-055>058-069>072-020800-
...CENTRAL MISSOURI...

CITY           SKY/WX    TMP DP  RH WIND       PRES   REMARKS
COLUMBIA       NOT AVBL
JEFFERSON CITY CLEAR     74  69  85 E5        30.04F
SEDALIA        CLEAR     73  68  84 S6        30.05F

$$
MOZ051-052-059>065-020800-
...EAST CENTRAL MISSOURI...

CITY           SKY/WX    TMP DP  RH WIND       PRES   REMARKS
ST LOUIS INTL  CLEAR     79  69  71 SW3       30.07F

$$
MOZ072>076-082>087-097>100-106>115-020800-
...SOUTH CENTRAL AND SOUTHEAST MISSOURI...

CITY           SKY/WX    TMP DP  RH WIND       PRES   REMARKS
CAPE GIRARDEAU PTCLDY    68  67  96 CALM      30.07F FOG
POPLAR BLUFF   PTCLDY    69  68  96 CALM      30.06F FOG
WEST PLAINS    CLEAR     74  67  78 CALM      30.12F

$$


USA.gov is the U.S. government's official web portal to all federal, state and local government web resources and services.